EW4582 Weather Reports


time (UTC)temp
C
wind
direction
speed
KPH
gust
KPH
rain 1hr
cm
rain 24hr
cm
rain mn
cm
humidity
%
barometer
mb
20260503194501 15 164 1.6 3.2 0.00 0.05 0.05 74 1015.8
20260503193955 16 285 1.6 3.2 0.00 0.05 0.05 73 1015.8
20260503193451 16 246 3.2 3.2 0.00 0.05 0.05 73 1015.8
20260503192947 15 278 0.0 0.0 0.00 0.05 0.05 74 1016.1
20260503192443 15 241 3.2 4.8 0.00 0.05 0.05 76 1015.8
20260503191939 15 237 3.2 4.8 0.00 0.05 0.05 75 1015.8
20260503191437 15 257 0.0 1.6 0.00 0.05 0.05 75 1016.1
20260503190933 15 185 1.6 3.2 0.00 0.05 0.05 75 1016.1
20260503190431 16 247 1.6 1.6 0.00 0.05 0.05 75 1016.1
20260503185927 15 260 0.0 0.0 0.00 0.05 0.05 78 1016.1
20260503185424 15 282 0.0 0.0 0.00 0.05 0.05 78 1016.1
20260503184923 15 138 1.6 4.8 0.00 0.05 0.05 77 1016.1
20260503184420 16 246 0.0 0.0 0.00 0.05 0.05 76 1015.8
20260503183916 15 207 3.2 4.8 0.00 0.05 0.05 77 1015.8
20260503183412 15 265 1.6 3.2 0.00 0.05 0.05 77 1015.8
20260503182909 15 183 3.2 4.8 0.00 0.05 0.05 77 1016.1
20260503182409 15 135 1.6 1.6 0.00 0.05 0.05 77 1016.1
20260503181900 15 322 1.6 1.6 0.00 0.05 0.05 79 1015.8
20260503181357 14 173 1.6 1.6 0.00 0.05 0.05 80 1015.8
20260503180853 14 280 1.6 3.2 0.00 0.05 0.05 82 1015.8
20260503180351 13 205 0.0 0.0 0.00 0.05 0.05 84 1016.1
20260503175848 13 215 1.6 1.6 0.00 0.05 0.05 83 1015.8
20260503175346 13 290 0.0 0.0 0.00 0.05 0.05 86 1015.8
20260503174841 13 213 0.0 1.6 0.00 0.05 0.05 86 1015.8
20260503174339 12 314 0.0 0.0 0.00 0.05 0.05 87 1015.8
20260503173834 12 168 1.6 3.2 0.00 0.05 0.05 87 1015.8
20260503173331 13 309 0.0 1.6 0.00 0.05 0.05 87 1015.8
20260503172827 12 219 0.0 0.0 0.00 0.05 0.05 87 1015.8
20260503172326 13 272 0.0 1.6 0.00 0.05 0.05 86 1015.8
20260503171821 12 249 0.0 0.0 0.00 0.05 0.05 86 1016.1
20260503171318 12 256 0.0 1.6 0.00 0.05 0.05 86 1015.8
20260503170816 12 274 0.0 0.0 0.00 0.05 0.05 87 1015.8
20260503170312 12 294 0.0 0.0 0.00 0.05 0.05 88 1015.8
20260503150704 11 276 0.0 1.6 0.00 0.05 0.05 97 1015.4
20260503150200 11 322 0.0 0.0 0.00 0.05 0.05 97 1015.1
20260503140125 11 300 0.0 0.0 0.00 0.00 0.00 96 1014.8
20260503131054 11 265 0.0 0.0 0.00 0.00 0.00 95 1014.1
20260503130551 11 263 0.0 0.0 0.00 0.00 0.00 94 1013.7
20260503110442 12 82 0.0 0.0 0.00 0.00 0.00 86 1013.7
20260503090333 12 90 1.6 1.6 0.00 0.00 0.00 84 1014.1
20260503081300 12 81 0.0 0.0 0.00 0.00 0.00 85 1014.1
20260503080756 12 48 0.0 0.0 0.00 0.00 0.00 85 1014.4
20260503080254 12 56 0.0 0.0 0.00 0.00 0.00 85 1014.1
20260503072730 12 81 0.0 1.6 0.00 0.00 0.00 84 1014.4
20260503072227 12 52 0.0 0.0 0.00 0.00 0.00 85 1014.1
20260503071723 12 27 0.0 0.0 0.00 0.00 0.00 85 1014.1
20260503071220 12 76 0.0 0.0 0.00 0.00 0.00 85 1014.4
20260503070717 12 62 0.0 0.0 0.00 0.00 0.00 85 1014.4
20260503070215 12 67 0.0 0.0 0.00 0.00 0.00 85 1014.1
20260503060139 12 40 0.0 0.0 0.00 0.00 0.00 85 1014.4
20260503054626 12 45 0.0 0.0 0.00 0.00 0.00 85 1014.4
20260503054124 12 46 0.0 0.0 0.00 0.00 0.00 84 1014.4
20260503053622 12 49 0.0 0.0 0.00 0.00 0.00 84 1014.4
20260503053120 12 77 0.0 0.0 0.00 0.00 0.00 84 1014.4
20260503052616 12 28 0.0 1.6 0.00 0.00 0.00 84 1014.8
20260503052113 12 27 0.0 0.0 0.00 0.00 0.00 84 1014.4
20260503051608 12 30 0.0 0.0 0.00 0.00 0.00 84 1014.8
20260503051106 12 47 0.0 0.0 0.00 0.00 0.00 84 1014.8
20260503050602 12 10 0.0 0.0 0.00 0.00 0.00 84 1014.8
20260503050059 12 61 0.0 0.0 0.00 0.00 0.00 84 1014.8
20260503045556 12 49 0.0 0.0 0.00 0.00 0.00 83 1014.8
20260503045053 12 52 0.0 0.0 0.00 0.00 0.00 83 1014.4
20260503044550 12 60 0.0 0.0 0.00 0.00 0.00 83 1014.8
20260503044048 12 56 0.0 0.0 0.00 0.00 0.00 83 1014.8
20260503043543 12 52 0.0 0.0 0.00 0.00 0.00 83 1014.8
20260503043040 12 49 0.0 0.0 0.00 0.00 0.00 83 1014.8
20260503042537 12 48 0.0 0.0 0.00 0.00 0.00 82 1014.4
20260503042033 12 47 0.0 0.0 0.00 0.00 0.00 82 1014.8
20260503041530 12 50 0.0 0.0 0.00 0.00 0.00 81 1014.8
20260503041028 12 15 0.0 0.0 0.00 0.00 0.00 81 1014.8
20260503040525 12 50 0.0 0.0 0.00 0.00 0.00 82 1014.4
20260503040023 12 58 0.0 0.0 0.00 0.00 0.00 82 1014.4
20260503035519 12 76 0.0 1.6 0.00 0.00 0.00 82 1014.4
20260503035017 12 82 0.0 0.0 0.00 0.00 0.00 83 1014.4
20260503034514 12 53 0.0 0.0 0.00 0.00 0.00 82 1014.4
20260503034011 12 28 0.0 0.0 0.00 0.00 0.00 82 1014.1
20260503033508 12 56 0.0 0.0 0.00 0.00 0.00 82 1014.4
20260503033006 12 73 0.0 0.0 0.00 0.00 0.00 83 1014.1
20260503032504 12 84 0.0 1.6 0.00 0.00 0.00 83 1014.4
20260503032002 12 60 0.0 0.0 0.00 0.00 0.00 83 1014.1
20260503031500 12 64 0.0 0.0 0.00 0.00 0.00 83 1014.1
20260503030956 12 74 0.0 0.0 0.00 0.00 0.00 82 1014.1
20260503030452 12 43 0.0 0.0 0.00 0.00 0.00 82 1014.1
20260503025949 12 72 0.0 0.0 0.00 0.00 0.00 82 1014.1
20260503025446 12 36 0.0 0.0 0.00 0.00 0.00 83 1014.1
20260503024943 12 53 0.0 0.0 0.00 0.00 0.00 83 1014.1
20260503024440 12 53 0.0 0.0 0.00 0.00 0.00 83 1014.1
20260503023937 12 61 0.0 0.0 0.00 0.00 0.00 82 1014.1
20260503023434 12 54 0.0 0.0 0.00 0.00 0.00 83 1014.1
20260503022931 13 79 0.0 0.0 0.00 0.00 0.00 82 1013.7
20260503022426 13 43 0.0 1.6 0.00 0.00 0.00 82 1014.1
20260503021922 13 42 0.0 0.0 0.00 0.00 0.00 82 1013.7
20260503021418 13 67 0.0 0.0 0.00 0.00 0.00 82 1014.1
20260503020916 13 30 0.0 1.6 0.00 0.00 0.00 81 1014.1
20260503020414 13 40 0.0 0.0 0.00 0.00 0.00 81 1013.7
20260503015909 13 46 0.0 0.0 0.00 0.00 0.00 81 1013.7
20260503015407 13 39 0.0 0.0 0.00 0.00 0.00 83 1013.7
20260503014903 13 58 0.0 0.0 0.00 0.00 0.00 82 1014.1
20260503014400 13 36 1.6 1.6 0.00 0.00 0.00 83 1013.7
20260503013858 13 42 0.0 1.6 0.00 0.00 0.00 82 1014.1
20260503013354 13 39 0.0 0.0 0.00 0.00 0.00 82 1014.1
20260503012852 13 53 0.0 0.0 0.00 0.00 0.00 82 1014.1
20260503012349 13 61 0.0 0.0 0.00 0.00 0.00 82 1014.1
20260503011846 13 48 0.0 0.0 0.00 0.00 0.00 81 1014.1
20260503011343 13 10 1.6 1.6 0.00 0.00 0.00 82 1014.1
20260503010839 13 17 0.0 1.6 0.00 0.00 0.00 83 1014.1
20260503010337 13 41 0.0 0.0 0.00 0.00 0.00 82 1014.1
20260503005833 13 33 1.6 1.6 0.00 0.00 0.00 82 1014.1
20260503005331 14 12 0.0 1.6 0.00 0.00 0.00 82 1014.1
20260503004827 14 40 0.0 0.0 0.00 0.00 0.00 81 1014.1
20260503004325 13 50 0.0 0.0 0.00 0.00 0.00 82 1014.1
20260503003822 13 73 3.2 3.2 0.00 0.00 0.00 81 1014.1
20260503003319 14 1 0.0 0.0 0.00 0.00 0.00 81 1014.1
20260503002816 14 2 1.6 1.6 0.00 0.00 0.00 82 1014.1
20260503002313 14 44 0.0 0.0 0.00 0.00 0.00 82 1014.1
20260503001809 14 53 0.0 1.6 0.00 0.00 0.00 81 1014.1
20260503001305 14 86 0.0 1.6 0.00 0.00 0.00 80 1014.1
20260503000803 15 38 0.0 1.6 0.00 0.00 0.00 80 1014.1
20260503000300 15 25 0.0 0.0 0.00 0.00 0.00 79 1014.4
20260502235757 15 330 0.0 0.0 0.00 0.00 0.00 80 1014.4
20260502235255 15 14 1.6 1.6 0.00 0.00 0.00 80 1014.4
20260502234751 15 41 1.6 1.6 0.00 0.00 0.00 80 1014.1
20260502234248 15 19 1.6 1.6 0.00 0.00 0.00 80 1014.1
20260502233744 15 352 1.6 1.6 0.00 0.00 0.00 80 1014.1
20260502233241 15 26 0.0 0.0 0.00 0.00 0.00 80 1014.4
20260502232737 15 346 0.0 1.6 0.00 0.00 0.00 79 1014.4
20260502232234 15 347 0.0 0.0 0.00 0.00 0.00 79 1014.1
20260502231731 15 41 0.0 0.0 0.00 0.00 0.00 80 1014.4
20260502231228 15 357 0.0 1.6 0.00 0.00 0.00 82 1014.1
20260502230727 15 25 0.0 0.0 0.00 0.00 0.00 80 1014.4
20260502230225 15 44 1.6 1.6 0.00 0.00 0.00 81 1014.4
20260502225721 15 354 1.6 1.6 0.00 0.00 0.00 80 1014.4
20260502225218 15 33 0.0 1.6 0.00 0.00 0.00 80 1014.8
20260502224714 15 51 0.0 0.0 0.00 0.00 0.00 79 1015.1
20260502224211 15 0 0.0 1.6 0.00 0.00 0.00 81 1015.1
20260502223708 15 66 0.0 1.6 0.00 0.00 0.00 80 1015.1
20260502223207 15 0 0.0 0.0 0.00 0.00 0.00 81 1015.1
20260502222704 15 345 0.0 1.6 0.00 0.00 0.00 81 1015.1
20260502222201 15 351 0.0 0.0 0.00 0.00 0.00 81 1015.1
20260502221656 14 11 1.6 1.6 0.00 0.00 0.00 82 1015.4
20260502221153 14 74 1.6 1.6 0.00 0.00 0.00 82 1015.4
20260502220649 15 9 1.6 1.6 0.00 0.00 0.00 83 1015.8
20260502220146 14 3 0.0 0.0 0.00 0.00 0.00 83 1015.8
20260502215643 14 36 0.0 0.0 0.00 0.00 0.00 82 1015.8
20260502215139 14 335 1.6 1.6 0.00 0.00 0.00 82 1015.8
20260502214637 15 340 0.0 1.6 0.00 0.00 0.00 82 1015.8
20260502214134 15 344 1.6 1.6 0.00 0.00 0.00 82 1015.8
20260502213631 15 346 1.6 1.6 0.00 0.00 0.00 82 1015.8
20260502213128 15 351 1.6 1.6 0.00 0.00 0.00 82 1016.1
20260502212627 15 258 0.0 1.6 0.00 0.00 0.00 80 1016.1
20260502212120 16 347 1.6 1.6 0.00 0.00 0.00 78 1015.8
20260502211620 16 25 0.0 0.0 0.00 0.00 0.00 79 1015.8
20260502211112 16 27 1.6 3.2 0.00 0.00 0.00 77 1016.1
20260502210609 16 19 1.6 3.2 0.00 0.00 0.00 76 1016.1
20260502210106 16 114 0.0 1.6 0.00 0.00 0.00 76 1016.1
20260502205603 16 14 0.0 0.0 0.00 0.00 0.00 76 1016.1
20260502205100 16 96 3.2 4.8 0.00 0.00 0.00 74 1016.1
20260502204556 16 354 1.6 3.2 0.00 0.00 0.00 75 1016.1
20260502204054 16 305 1.6 1.6 0.00 0.00 0.00 77 1015.8
20260502203551 16 12 0.0 1.6 0.00 0.00 0.00 77 1016.1
20260502203048 16 49 0.0 0.0 0.00 0.00 0.00 77 1016.1
20260502202544 15 330 1.6 3.2 0.00 0.00 0.00 78 1016.4
20260502202042 15 353 0.0 1.6 0.00 0.00 0.00 79 1016.8
20260502201538 15 338 0.0 1.6 0.00 0.00 0.00 79 1016.8
20260502201035 16 40 0.0 1.6 0.00 0.00 0.00 80 1016.8
20260502200530 15 5 4.8 4.8 0.00 0.00 0.00 80 1016.8
20260502200029 15 349 3.2 3.2 0.00 0.00 0.00 80 1016.8
20260502195526 15 0 0.0 0.0 0.00 0.00 0.00 81 1016.4
20260502195021 15 88 1.6 1.6 0.00 0.00 0.00 80 1016.8